Change the Weather History Date:

Monday, January 6, 2014

  Actual Average Record
Temperature  
Mean Temperature 37 °F 33 °F  
Max Temperature 60 °F 40 °F 73 °F (2007)
Min Temperature 13 °F 26 °F 4 °F (1896)
Degree Days  
Heating Degree Days 28 32  
Month to date heating degree days 220 190  
Since 1 July heating degree days 1833 1860  
Cooling Degree Days 0 0  
Month to date cooling degree days 0 0  
Year to date cooling degree days 0 0  
Moisture  
Dew Point 38 °F    
Average Humidity 65    
Maximum Humidity 93    
Minimum Humidity 36    
Precipitation  
Precipitation 0.35 in 0.09 in 2.00 in (1962)
Month to date precipitation 1.23 0.57  
Year to date precipitation 1.23 0.57  
Snow  
Snow T in 0.20 in 9.20 in (1893)
Month to date snowfall 9.0 1.0  
Since 1 July snowfall 20.2 4.7  
Snow Depth 0.00 in    
Sea Level Pressure  
Sea Level Pressure 29.61 in    
Wind  
Wind Speed 18 mph (WSW)    
Max Wind Speed 36 mph    
Max Gust Speed 45 mph    
Visibility 8 miles    
Events Rain , Snow    
T = Trace of Precipitation, MM = Missing Value Source: NWS Daily Summary

Daily Weather History Graph

Daily Weather History Graph

Search for Another Location

Airport or City:

Trip Planner

Search our weather history database for the weather conditions in past years. The results will help you decide how hot, cold, wet, or windy it might be!

Date:

Astronomy

Jan. 06, 2014 Rise Set
Actual Time 7:22 AM EST 4:51 PM EST
Civil Twilight 6:52 AM EST 5:21 PM EST
Nautical Twilight 6:18 AM EST 5:55 PM EST
Astronomical Twilight 5:46 AM EST 6:27 PM EST
Moon 10:37 AM EST (1/6) 11:21 PM EST (1/6)
Length of Visible Light 10h 29m
Length of Day
9h 28m
Waxing Crescent, 34% of the Moon is Illuminated
Jan 6
Waxing Crescent
Jan 7
First Quarter
Jan 15
Full
Jan 24
Last Quarter
Jan 30
New

Hourly Weather History & Observations

Time (EST) Temp. Windchill Dew Point Humidity Pressure Visibility Wind Dir Wind Speed Gust Speed Precip Events Conditions
12:03 AM 53.6 °F - 51.8 °F 94% 29.72 in 3.0 mi South 13.8 mph 20.7 mph 0.00 in Rain Light Rain
12:06 AM 53.6 °F - 51.8 °F 94% 29.72 in 1.5 mi South 13.8 mph - 0.00 in Rain Light Rain
12:17 AM 53.6 °F - 51.8 °F 94% 29.71 in 2.5 mi South 13.8 mph - 0.00 in Rain Light Rain
12:21 AM 53.6 °F - 51.8 °F 94% 29.70 in 3.0 mi South 13.8 mph 21.9 mph 0.01 in Rain Light Rain
12:54 AM 54.0 °F - 52.0 °F 93% 29.69 in 6.0 mi South 17.3 mph - 0.03 in Rain Light Rain
1:00 AM 53.6 °F - 51.8 °F 94% 29.69 in 7.0 mi South 17.3 mph - 0.00 in   Overcast
1:40 AM 53.6 °F - 51.8 °F 94% 29.67 in 7.0 mi SSW 12.7 mph - 0.01 in   Overcast
1:54 AM 55.0 °F - 53.1 °F 93% 29.66 in 7.0 mi South 13.8 mph - 0.02 in   Overcast
2:20 AM 55.4 °F - 53.6 °F 94% 29.65 in 8.0 mi South 13.8 mph - N/A   Overcast
2:54 AM 57.0 °F - 54.0 °F 89% 29.62 in 9.0 mi South 11.5 mph - 0.01 in   Overcast
3:48 AM 57.2 °F - 53.6 °F 88% 29.58 in 10.0 mi South 11.5 mph - 0.01 in   Overcast
3:54 AM 57.9 °F - 55.0 °F 90% 29.57 in 10.0 mi South 11.5 mph - 0.01 in   Overcast
4:54 AM 57.9 °F - 55.0 °F 90% 29.52 in 10.0 mi South 16.1 mph - 0.01 in   Overcast
5:54 AM 59.0 °F - 55.9 °F 90% 29.48 in 10.0 mi South 17.3 mph - 0.01 in   Overcast
6:00 AM 60.8 °F - 55.4 °F 82% 29.47 in 8.0 mi South 18.4 mph 25.3 mph 0.00 in Rain Light Rain
6:15 AM 60.8 °F - 55.4 °F 82% 29.47 in 10.0 mi South 19.6 mph 27.6 mph 0.01 in   Overcast
6:34 AM 59.0 °F - 55.4 °F 88% 29.46 in 8.0 mi South 19.6 mph 25.3 mph 0.02 in Rain Light Rain
6:54 AM 57.9 °F - 55.0 °F 90% 29.46 in 8.0 mi South 16.1 mph 26.5 mph 0.01 in Rain Light Rain
7:42 AM 57.2 °F - 55.4 °F 94% 29.44 in 6.0 mi South 18.4 mph 26.5 mph 0.02 in Rain Light Rain
7:43 AM 57.2 °F - 55.4 °F 94% 29.47 in 3.0 mi South 18.4 mph 26.5 mph 0.02 in Rain Heavy Rain
7:54 AM 54.0 °F - 50.0 °F 86% 29.50 in 3.0 mi West 29.9 mph 44.9 mph 0.08 in Rain Rain
8:01 AM 53.6 °F - 48.2 °F 82% 29.49 in 5.0 mi West 26.5 mph 44.9 mph 0.01 in Rain Light Rain
8:08 AM 51.8 °F - 48.2 °F 88% 29.49 in 7.0 mi WNW 20.7 mph 33.4 mph 0.01 in Rain Light Rain
8:20 AM 51.8 °F - 44.6 °F 76% 29.51 in 4.0 mi WNW 16.1 mph 28.8 mph 0.03 in Rain Rain
8:26 AM 50.0 °F - 42.8 °F 76% 29.51 in 7.0 mi WNW 18.4 mph 28.8 mph 0.04 in Rain Light Rain
8:54 AM 48.9 °F - 42.1 °F 77% 29.55 in 7.0 mi West 9.2 mph - 0.06 in Rain Light Rain
9:25 AM 48.2 °F - 41.0 °F 76% 29.55 in 10.0 mi WNW 8.1 mph - 0.03 in   Overcast
9:54 AM 48.0 °F - 41.0 °F 77% 29.56 in 10.0 mi West 9.2 mph - 0.03 in   Overcast
10:29 AM 48.2 °F - 39.2 °F 71% 29.56 in 8.0 mi West 16.1 mph 20.7 mph 0.00 in Rain Light Rain
10:47 AM 46.4 °F 39.2 °F 37.4 °F 71% 29.56 in 5.0 mi West 18.4 mph 28.8 mph 0.01 in Rain Light Rain
10:54 AM 45.0 °F 37.9 °F 37.0 °F 74% 29.56 in 6.0 mi West 16.1 mph 29.9 mph 0.01 in Rain Light Rain
11:33 AM 42.8 °F 34.8 °F 33.8 °F 70% 29.58 in 4.0 mi West 17.3 mph 31.1 mph 0.01 in Rain Rain
11:45 AM 41.0 °F 33.1 °F 33.8 °F 76% 29.58 in 5.0 mi West 15.0 mph 21.9 mph 0.02 in Rain Light Rain
11:54 AM 41.0 °F 33.1 °F 34.0 °F 76% 29.57 in 6.0 mi West 15.0 mph - 0.03 in Rain Light Rain
12:05 PM 39.2 °F 31.2 °F 33.8 °F 81% 29.58 in 7.0 mi NW 13.8 mph - 0.01 in Rain Light Rain
12:48 PM 37.4 °F 28.5 °F 30.2 °F 75% 29.59 in 7.0 mi WNW 15.0 mph 20.7 mph 0.01 in Rain , Snow Light Rain
12:54 PM 37.9 °F 29.6 °F 28.0 °F 68% 29.58 in 9.0 mi WNW 13.8 mph - 0.01 in Snow Light Snow
1:04 PM 37.4 °F 30.3 °F 28.4 °F 70% 29.58 in 10.0 mi West 10.4 mph - 0.00 in   Mostly Cloudy
1:54 PM 39.9 °F 30.5 °F 21.9 °F 49% 29.59 in 10.0 mi WNW 19.6 mph 31.1 mph 0.00 in   Mostly Cloudy
2:54 PM 39.9 °F 30.8 °F 19.9 °F 45% 29.61 in 10.0 mi WNW 18.4 mph 31.1 mph N/A   Mostly Cloudy
3:54 PM 37.0 °F 27.4 °F 17.1 °F 44% 29.63 in 10.0 mi West 17.3 mph 28.8 mph N/A   Mostly Cloudy
4:54 PM 36.0 °F 25.6 °F 15.1 °F 43% 29.65 in 10.0 mi WNW 18.4 mph 26.5 mph N/A   Mostly Cloudy
5:54 PM 34.0 °F 21.8 °F 12.0 °F 40% 29.70 in 10.0 mi West 23.0 mph 33.4 mph N/A   Mostly Cloudy
6:54 PM 32.0 °F 20.8 °F 10.9 °F 42% 29.75 in 10.0 mi West 17.3 mph 25.3 mph N/A   Mostly Cloudy
7:54 PM 30.9 °F 17.5 °F 10.9 °F 43% 29.77 in 10.0 mi WNW 24.2 mph 32.2 mph N/A   Mostly Cloudy
8:54 PM 26.1 °F 10.7 °F 6.1 °F 43% 29.81 in 10.0 mi WNW 25.3 mph 38.0 mph N/A   Scattered Clouds
9:54 PM 21.0 °F 3.9 °F -2.0 °F 36% 29.85 in 10.0 mi West 25.3 mph 33.4 mph N/A   Clear
10:54 PM 16.0 °F -2.8 °F -6.0 °F 38% 29.92 in 10.0 mi West 25.3 mph 38.0 mph N/A   Partly Cloudy
11:54 PM 14.0 °F -5.1 °F -9.0 °F 35% 29.96 in 10.0 mi West 24.2 mph 34.5 mph N/A   Clear